• In Netherlands
  • List of Countries
  • For 7 days
  • Water Temperature
  • Satellite Maps
  • Weather Map
  • Weather Widgets
  • user-avatar
    Login

    Hourly Weather Dhaka

    Today, 21 September, Thursday

    Time Temperature Precipitation Wind Pressure Humidity
    00:00 +29°C° 0.2 mm 3 mps 753 mmHg 88%
    01:00 +29°C° 1 mm 3 mps 753 mmHg 90%
    02:00 +28°C° 1 mm 3 mps 753 mmHg 91%
    03:00 +28°C° 1 mm 3 mps 753 mmHg 92%
    04:00 +28°C° 2.2 mm 3 mps 753 mmHg 91%
    05:00 +28°C° 2.2 mm 3 mps 753 mmHg 91%
    06:00 +28°C° 2.2 mm 3 mps 753 mmHg 91%
    07:00 +29°C° 1.6 mm 3 mps 753 mmHg 87%
    08:00 +30°C° 1.6 mm 4 mps 754 mmHg 83%
    09:00 +32°C° 1.6 mm 4 mps 754 mmHg 79%
    10:00 +33°C° 1.4 mm 4 mps 754 mmHg 74%
    11:00 +34°C° 1.4 mm 4 mps 753 mmHg 70%
    12:00 +35°C° 1.4 mm 4 mps 753 mmHg 66%
    13:00 +35°C° 0.7 mm 4 mps 752 mmHg 66%
    14:00 +35°C° 0.7 mm 4 mps 751 mmHg 65%
    15:00 +36°C° 0.7 mm 4 mps 751 mmHg 65%
    16:00 +35°C° 0 mm 4 mps 751 mmHg 69%
    17:00 +34°C° 0 mm 3 mps 751 mmHg 73%
    18:00 +33°C° 0 mm 3 mps 751 mmHg 76%
    19:00 +31°C° 0 mm 3 mps 751 mmHg 78%
    20:00 +31°C° 0 mm 3 mps 752 mmHg 80%
    21:00 +30°C° 0 mm 3 mps 753 mmHg 82%
    22:00 +30°C° 0.5 mm 3 mps 753 mmHg 84%
    23:00 +30°C° 0.5 mm 3 mps 753 mmHg 86%

    Tomorrow, 22 September, Friday

    Time Temperature Precipitation Wind Pressure Humidity
    00:00 +29°C° 0.5 mm 3 mps 753 mmHg 88%
    01:00 +29°C° 0.5 mm 3 mps 753 mmHg 89%
    02:00 +29°C° 0.5 mm 2 mps 753 mmHg 90%
    03:00 +29°C° 0.5 mm 2 mps 752 mmHg 91%
    04:00 +29°C° 0 mm 2 mps 753 mmHg 92%
    05:00 +29°C° 0 mm 2 mps 753 mmHg 92%
    06:00 +28°C° 0 mm 2 mps 753 mmHg 93%
    07:00 +30°C° 0.2 mm 3 mps 754 mmHg 87%
    08:00 +31°C° 0.2 mm 3 mps 754 mmHg 82%
    09:00 +33°C° 0.2 mm 4 mps 755 mmHg 76%
    10:00 +34°C° 0.6 mm 4 mps 754 mmHg 72%
    11:00 +35°C° 0.6 mm 3 mps 754 mmHg 68%
    12:00 +36°C° 0.6 mm 3 mps 753 mmHg 64%
    13:00 +36°C° 2.1 mm 3 mps 752 mmHg 65%
    14:00 +36°C° 2.1 mm 3 mps 752 mmHg 66%
    15:00 +35°C° 2.1 mm 3 mps 751 mmHg 66%
    16:00 +34°C° 0.8 mm 3 mps 751 mmHg 71%
    17:00 +33°C° 0.8 mm 3 mps 751 mmHg 75%
    18:00 +31°C° 0.8 mm 2 mps 751 mmHg 79%
    19:00 +31°C° 0 mm 2 mps 752 mmHg 81%
    20:00 +31°C° 0 mm 2 mps 752 mmHg 82%
    21:00 +30°C° 0 mm 2 mps 753 mmHg 84%
    22:00 +30°C° 0.2 mm 2 mps 753 mmHg 85%
    23:00 +30°C° 0.2 mm 2 mps 753 mmHg 86%

    Day after tomorrow, 23 September, Saturday

    Time Temperature Precipitation Wind Pressure Humidity
    00:00 +30°C° 0.2 mm 2 mps 753 mmHg 87%
    01:00 +30°C° 2.1 mm 2 mps 753 mmHg 88%
    02:00 +29°C° 2.1 mm 2 mps 752 mmHg 89%
    03:00 +29°C° 2.1 mm 2 mps 752 mmHg 90%
    04:00 +29°C° 1.5 mm 2 mps 752 mmHg 90%
    05:00 +29°C° 1.5 mm 2 mps 753 mmHg 90%
    06:00 +29°C° 1.5 mm 2 mps 753 mmHg 90%
    07:00 +30°C° 0.1 mm 2 mps 753 mmHg 85%
    08:00 +32°C° 0.1 mm 2 mps 754 mmHg 79%
    09:00 +34°C° 0.1 mm 2 mps 755 mmHg 73%
    10:00 +35°C° 0.2 mm 2 mps 754 mmHg 69%
    11:00 +36°C° 0.2 mm 2 mps 754 mmHg 64%
    12:00 +37°C° 0.2 mm 2 mps 753 mmHg 60%
    13:00 +37°C° 0.2 mm 2 mps 752 mmHg 59%
    14:00 +37°C° 0.2 mm 2 mps 752 mmHg 58%
    15:00 +37°C° 0.2 mm 2 mps 751 mmHg 57%
    16:00 +36°C° 0 mm 2 mps 751 mmHg 60%
    17:00 +36°C° 0 mm 2 mps 751 mmHg 63%
    18:00 +35°C° 0 mm 2 mps 751 mmHg 66%
    19:00 +34°C° 0 mm 2 mps 752 mmHg 69%
    20:00 +34°C° 0 mm 2 mps 752 mmHg 72%
    21:00 +32°C° 0 mm 2 mps 753 mmHg 74%
    22:00 +32°C° 0.4 mm 2 mps 753 mmHg 77%
    23:00 +31°C° 0.4 mm 3 mps 753 mmHg 80%

    24 September, Sunday

    Time Temperature Precipitation Wind Pressure Humidity
    00:00 +31°C° 0.4 mm 3 mps 753 mmHg 83%
    01:00 +31°C° 1.9 mm 2 mps 752 mmHg 83%
    02:00 +31°C° 1.9 mm 2 mps 752 mmHg 84%
    03:00 +30°C° 1.9 mm 2 mps 752 mmHg 85%
    04:00 +30°C° 1 mm 2 mps 752 mmHg 85%
    05:00 +30°C° 1 mm 2 mps 753 mmHg 85%
    06:00 +30°C° 1 mm 1 mps 753 mmHg 85%
    07:00 +31°C° 0.2 mm 1 mps 753 mmHg 82%
    08:00 +32°C° 0.2 mm 1 mps 754 mmHg 78%
    09:00 +33°C° 0.2 mm 1 mps 754 mmHg 74%
    10:00 +34°C° 0 mm 1 mps 753 mmHg 69%
    11:00 +35°C° 0 mm 1 mps 753 mmHg 64%
    12:00 +36°C° 0 mm 1 mps 752 mmHg 58%
    13:00 +36°C° 0 mm 1 mps 752 mmHg 58%
    14:00 +36°C° 0 mm 1 mps 751 mmHg 57%
    15:00 +36°C° 0 mm 1 mps 750 mmHg 56%
    16:00 +36°C° 0.1 mm 1 mps 750 mmHg 59%
    17:00 +35°C° 0.1 mm 1 mps 750 mmHg 62%
    18:00 +34°C° 0.1 mm 1 mps 750 mmHg 64%
    19:00 +34°C° 0.1 mm 1 mps 751 mmHg 66%
    20:00 +33°C° 0.1 mm 1 mps 751 mmHg 68%
    21:00 +33°C° 0.1 mm 1 mps 752 mmHg 70%
    22:00 +32°C° 0 mm 1 mps 752 mmHg 72%
    23:00 +32°C° 0 mm 1 mps 751 mmHg 74%

    25 September, Monday

    Time Temperature Precipitation Wind Pressure Humidity
    00:00 +32°C° 0 mm 1 mps 751 mmHg 76%
    01:00 +31°C° 0.7 mm 1 mps 751 mmHg 77%
    02:00 +31°C° 0.7 mm 1 mps 751 mmHg 79%
    03:00 +31°C° 0.7 mm 1 mps 751 mmHg 80%
    04:00 +31°C° 0.6 mm 1 mps 751 mmHg 81%
    05:00 +31°C° 0.6 mm 1 mps 751 mmHg 81%
    06:00 +31°C° 0.6 mm 1 mps 751 mmHg 81%
    07:00 +31°C° 0.5 mm 1 mps 752 mmHg 80%
    08:00 +32°C° 0.5 mm 1 mps 752 mmHg 79%
    09:00 +32°C° 0.5 mm 2 mps 753 mmHg 77%
    10:00 +33°C° 0.1 mm 1 mps 752 mmHg 72%
    11:00 +34°C° 0.1 mm 1 mps 752 mmHg 66%
    12:00 +35°C° 0.1 mm 1 mps 751 mmHg 61%
    13:00 +36°C° 0 mm 1 mps 751 mmHg 59%
    14:00 +36°C° 0 mm 1 mps 750 mmHg 57%
    15:00 +36°C° 0 mm 1 mps 749 mmHg 55%
    16:00 +36°C° 0 mm 1 mps 749 mmHg 59%
    17:00 +35°C° 0 mm 1 mps 749 mmHg 62%
    18:00 +34°C° 0 mm 1 mps 749 mmHg 65%
    19:00 +33°C° 0 mm 1 mps 750 mmHg 67%
    20:00 +33°C° 0 mm 1 mps 750 mmHg 69%
    21:00 +32°C° 0 mm 1 mps 751 mmHg 71%
    22:00 +32°C° 0.2 mm 1 mps 750 mmHg 72%
    23:00 +32°C° 0.2 mm 1 mps 750 mmHg 74%

    26 September, Tuesday

    Time Temperature Precipitation Wind Pressure Humidity
    00:00 +32°C° 0.2 mm 1 mps 750 mmHg 75%
    01:00 +31°C° 0.1 mm 1 mps 750 mmHg 76%
    02:00 +31°C° 0.1 mm 1 mps 750 mmHg 77%
    03:00 +31°C° 0.1 mm 1 mps 750 mmHg 78%
    04:00 +31°C° 0.6 mm 1 mps 750 mmHg 79%
    05:00 +31°C° 0.6 mm 1 mps 750 mmHg 80%
    06:00 +31°C° 0.6 mm 1 mps 751 mmHg 82%
    07:00 +31°C° 0 mm 1 mps 751 mmHg 78%
    08:00 +32°C° 0 mm 1 mps 751 mmHg 75%
    09:00 +33°C° 0 mm 1 mps 752 mmHg 72%
    10:00 +34°C° 0.1 mm 1 mps 751 mmHg 67%
    11:00 +36°C° 0.1 mm 1 mps 751 mmHg 62%
    12:00 +37°C° 0.1 mm 1 mps 750 mmHg 57%
    13:00 +37°C° 0.1 mm 1 mps 750 mmHg 56%
    14:00 +37°C° 0.1 mm 1 mps 749 mmHg 55%
    15:00 +37°C° 0.1 mm 1 mps 748 mmHg 54%
    16:00 +36°C° 0 mm 1 mps 748 mmHg 57%
    17:00 +35°C° 0 mm 1 mps 749 mmHg 59%
    18:00 +35°C° 0 mm 1 mps 749 mmHg 62%
    19:00 +34°C° 0 mm 1 mps 749 mmHg 64%
    20:00 +35°C° 0 mm 2 mps 750 mmHg 66%
    21:00 +34°C° 0 mm 2 mps 750 mmHg 68%
    22:00 +34°C° 0 mm 2 mps 750 mmHg 70%
    23:00 +34°C° 0 mm 2 mps 750 mmHg 72%
    Show more